レモン彗星

P/2020 M2 ( Lemmon )

English version
Home page
Updated on August 15, 2020

---------------------------------------------------------------------

・ プロフィール

検出日 2020年6月29日
検出光度 17.8等
検出者 H. Sato (Tokyo, Japan)

・ 軌道要素

Epoch 2020 May 31.0 TT = JDT 2459000.5                                          
T 2020 June 19.24689 TT                                 Rudenko                 
q   2.2768756            (2000.0)            P               Q                  
n   0.13174737     Peri.   14.38755     +0.92386092     -0.38176924             
a   3.8250878      Node     8.21140     +0.32973704     +0.75803206             
e   0.4047521      Incl.   10.92895     +0.19430514     +0.52880964             
P   7.48                                                                        
From 195 observations 2012 Sept. 14-2020 Aug. 1, mean residual 0".5.            

・ 星図

・ 光度変化

        m1 = 10.0 + 5 logΔ + 15.0 log r

---------------------------------------------------------------------

軌道要素はM.P.E.C. 2020-P19に掲載されたものです。
星図はステラナビゲータ Ver.10 (アストロアーツ) で作成したものです。
光度グラフはComet for Windowsで作成したものです。

---------------------------------------------------------------------

Copyright(C) Seiichi Yoshida (comet@aerith.net). All rights reserved.